Tracking 23583 objects as of 28-Jul-2021
HD Live streaming from Space Station
objects crossing your sky now

STRV 1A

Track STRV 1A now!
10-day predictions
STRV 1A is classified as:


NORAD ID: 23125
Int'l Code: 1994-034B
Perigee: 287.6 km
Apogee: 25,518.3 km
Inclination: 7.5 °
Period: 443.8 minutes
Semi major axis: 19273 km
RCS: 0.2699 m2 (medium)
Launch date: June 17, 1994
Source: United Kingdom (UK)
Launch site: FRENCH GUIANA (FRGUI)
aabbcc
Your satellite tracking list
Your tracking list is empty




NASA's NSSDC Master Catalog

Two Line Element Set (TLE):
1 23125U 94034B   21208.59148953  .00000610  00000-0  21440-3 0  9991
2 23125   7.5362 338.8299 6545279  73.8305 345.1958  3.24448976274650
Source of the keplerian elements: AFSPC